Simultaneous Nadir Overpasses (SNOs) Predictions

Prediction of SNOs between GOES-15 and TERRA Satellite Orbit:

Table of predicted SNOs for the next 14.0 days since TLE Epoch: 11/12/2022
Index Date Time (GOES-15) GOES-15 Lat,Lon TERRA Lat,Lon Distance(km) Time Diff (sec)
1 11/12/2022 06:31:09 0.23,-128.34 0.96,-124.87 394.50 80
2 11/12/2022 18:51:30 -0.22,-128.33 0.10,-129.81 169.27 80
3 11/14/2022 18:38:29 -0.21,-128.29 -0.66,-126.02 258.24 80
4 11/15/2022 06:59:00 0.21,-128.30 -0.35,-131.00 306.96 80
5 11/17/2022 06:40:39 0.20,-128.26 0.44,-127.21 120.02 80
6 11/17/2022 19:00:59 -0.19,-128.23 0.62,-132.15 445.07 80
7 11/19/2022 18:45:18 -0.19,-128.20 -0.18,-128.36 18.25 80
8 11/21/2022 18:32:17 -0.20,-128.15 -0.95,-124.56 408.44 80
9 11/22/2022 06:52:46 0.19,-128.17 -0.10,-129.54 156.08 80
10 11/24/2022 06:34:24 0.19,-128.11 0.69,-125.74 269.17 80
11 11/24/2022 18:54:45 -0.18,-128.07 0.37,-130.68 297.38 80
